This is the latest recevied weather packets stored in our database for station/object KQ4KX. If no packets are shown the sender has not sent any weather packets the latest 10 day(s).
| Time | Temp. | Humidity | Pressure | Rain* | Wind** | Luminosity | Snow |
|---|---|---|---|---|---|---|---|
| 1777565546 | 28.33° C | 65% | 1013 hPa | 0 mm | - | - | - |
| 1777565215 | 28.89° C | 66% | 1012.9 hPa | 0 mm | - | - | - |
| 1777564916 | 28.33° C | 67% | 1012.9 hPa | 0 mm | - | - | - |
| 1777564316 | 28.33° C | 71% | 1012.7 hPa | 0 mm | - | - | - |
| 1777563687 | 28.33° C | 71% | 1012.8 hPa | 0 mm | - | - | - |
| 1777563386 | 28.33° C | 73% | 1013 hPa | 0 mm | - | - | - |
| 1777563086 | 28.33° C | 73% | 1013.1 hPa | 0 mm | - | - | - |
| 1777562756 | 27.78° C | 72% | 1013.2 hPa | 0 mm | - | - | - |
| 1777562455 | 27.78° C | 73% | 1013.1 hPa | 0 mm | - | - | - |
| 1777562125 | 27.78° C | 72% | 1013 hPa | 0 mm | - | - | - |
| 1777561527 | 27.22° C | 73% | 1013 hPa | 0 mm | - | - | - |
| 1777560896 | 26.67° C | 74% | 1012.9 hPa | 0 mm | - | - | - |
| 1777560596 | 26.67° C | 75% | 1012.9 hPa | 0 mm | - | - | - |
| 1777560296 | 26.67° C | 77% | 1012.8 hPa | 0 mm | - | - | - |
| 1777559966 | 26.11° C | 79% | 1012.8 hPa | 0 mm | - | - | - |
| 1777559665 | 26.11° C | 80% | 1012.7 hPa | 0 mm | - | - | - |
| 1777559366 | 25.56° C | 78% | 1012.7 hPa | 0 mm | - | - | - |
| 1777559036 | 25.56° C | 80% | 1012.9 hPa | 0 mm | - | - | - |
| 1777558736 | 25° C | 83% | 1012.9 hPa | 0 mm | - | - | - |
| 1777558436 | 25° C | 83% | 1012.7 hPa | 0 mm | - | - | - |
| 1777557836 | 24.44° C | 90% | 1012.8 hPa | 0 mm | - | - | - |
| 1777557176 | 23.89° C | 93% | 1013.1 hPa | 0 mm | - | - | - |
| 1777556845 | 23.33° C | 93% | 1013 hPa | 0 mm | - | - | - |
| 1777556215 | 23.33° C | 94% | 1013.2 hPa | 0 mm | - | - | - |
| 1777555885 | 23.33° C | 95% | 1013.3 hPa | 0 mm | - | - | - |
* Rain latest hour (hover to see other rain measurements)
** Current wind speed in m/s (hover to see current wind gust speed)